Location: Bottens
(46.6171°N, 6.6605°E)
Time: 15:09:41
(UTC+00:00)

ERBS - Pass Details

Date: 20 June 2021
Orbit: 397 x 416 km, 57.0° (Epoch: 01 August)

Event Time Altitude Azimuth Distance (km) Brightness Sun altitude
Exits shadow 02:24:15 16° 208° (SSW) 1,155 3.8 -10.2°
Maximum altitude 02:26:38 50° 136° (SE) 516 2.6 -9.9°
Drops below altitude 10° 02:29:48 10° 60° (ENE) 1,455 6.3 -9.6°
Sets 02:31:54 0° 55° (NE) 2,321 7.8 -9.3°
